This is the latest recevied weather packets stored in our database for station/object KK6LZB. If no packets are shown the sender has not sent any weather packets the latest 10 day(s).
| Time | Temp. | Humidity | Pressure | Rain* | Wind** | Luminosity | Snow |
|---|---|---|---|---|---|---|---|
| 1777819159 | 15° C | 97% | 1015.7 hPa | 0 mm | - | 73 W/m² | - |
| 1777818856 | 14.44° C | 98% | 1015.8 hPa | 0 mm | - | 70 W/m² | - |
| 1777818551 | 14.44° C | 98% | 1015.8 hPa | 0 mm | - | 59 W/m² | - |
| 1777818249 | 14.44° C | 99% | 1015.8 hPa | 0 mm | - | 54 W/m² | - |
| 1777817945 | 14.44° C | 99% | 1015.8 hPa | 0 mm | - | 43 W/m² | - |
| 1777817643 | 14.44° C | 99% | 1015.5 hPa | 0 mm | - | 38 W/m² | - |
| 1777817339 | 13.89° C | 99% | 1015.4 hPa | 0 mm | - | 40 W/m² | - |
| 1777817036 | 13.89° C | 99% | 1015.6 hPa | 0 mm | - | 33 W/m² | - |
| 1777816732 | 13.89° C | 99% | 1015.5 hPa | 0 mm | - | 26 W/m² | - |
| 1777816430 | 13.89° C | 99% | 1015.5 hPa | 0 mm | - | 25 W/m² | - |
| 1777816127 | 13.89° C | 99% | 1015.4 hPa | 0 mm | - | 19 W/m² | - |
| 1777815825 | 13.89° C | 99% | 1015.2 hPa | 0 mm | - | 17 W/m² | - |
| 1777815522 | 13.89° C | 99% | 1015.2 hPa | 0 mm | - | 13 W/m² | - |
| 1777815220 | 13.33° C | 99% | 1015.3 hPa | 0 mm | - | 9 W/m² | - |
| 1777814916 | 13.33° C | 99% | 1015.5 hPa | 0 mm | - | 7 W/m² | - |
| 1777814612 | 13.33° C | 99% | 1015.1 hPa | 0 mm | - | 5 W/m² | - |
| 1777814310 | 13.33° C | 99% | 1015.4 hPa | 0 mm | - | 4 W/m² | - |
| 1777814006 | 13.33° C | 99% | 1015.2 hPa | 0 mm | - | 3 W/m² | - |
| 1777813703 | 13.33° C | 99% | 1015.2 hPa | 0 mm | - | 2 W/m² | - |
| 1777813401 | 13.33° C | 99% | 1015.2 hPa | 0 mm | - | 1 W/m² | - |
| 1777813098 | 13.33° C | 99% | 1015.1 hPa | 0 mm | - | 0 W/m² | - |
| 1777812796 | 13.33° C | 99% | 1015.1 hPa | 0 mm | - | 0 W/m² | - |
| 1777812492 | 13.33° C | 99% | 1014.9 hPa | 0 mm | - | 0 W/m² | - |
| 1777812190 | 13.33° C | 99% | 1014.8 hPa | 0 mm | - | 0 W/m² | - |
| 1777811888 | 13.33° C | 99% | 1014.7 hPa | 0 mm | - | 0 W/m² | - |
* Rain latest hour (hover to see other rain measurements)
** Current wind speed in m/s (hover to see current wind gust speed)